Location: Byszew
(52.1813°N, 19.2693°E)
Time: 14:49:48
(UTC+00:00)

ATLAS 3B R/B - Pass Details

Date: 03 March 2021
Orbit: 1006 x 1189 km, 63.8° (Epoch: 01 April)

Event Time Altitude Azimuth Distance (km) Brightness Sun altitude
Exits shadow 23:51:13 30° 26° (NNE) 1,811 4.2 -42.8°
Drops below altitude 10° 23:54:47 10° 45° (NE) 2,910 5.5 -42.6°
Sets 23:57:38 0° 51° (NE) 3,896 6.3 -42.5°
